Wind_Speed
30 30 29 29 29 30 30 30 29 29 29 30 29 28 28 29 29 29 29 29 30 29 29 30 31 30 30 30 28 29 29 30 32 34 35 35 36 36 36 35 35 35 36 36
32 31 30 31 31 30 31 31 30 30 30 30 29 28 28 28 27 28 28 28 28 29 30 30 31 30 31 30 29 28 29 30 31 33 34 34 35 36 36 36 35 36 37 36
33 32 32 32 31 31 31 31 30 30 30 30 30 29 28 28 28 28 29 29 28 29 30 30 32 31 31 31 29 29 28 29 29 31 32 34 36 36 35 35 35 36 38 38
35 33 33 33 32 32 32 31 31 31 31 31 31 31 28 28 29 29 29 28 29 30 31 31 32 32 30 31 31 31 30 29 31 31 32 34 35 35 35 35 35 36 37 38
36 35 34 34 33 33 33 32 32 32 32 32 31 32 29 29 30 30 29 29 29 30 32 33 33 32 31 31 32 32 31 30 30 31 32 33 34 33 34 35 36 36 37 38
37 36 35 34 34 34 33 33 33 33 33 33 31 31 30 30 31 30 30 31 31 31 32 33 33 34 34 33 34 33 31 32 31 31 31 33 34 33 33 35 36 36 37 39
37 37 37 35 35 34 34 33 33 34 34 33 31 32 30 29 30 31 31 32 33 33 33 33 33 34 34 35 34 33 34 33 33 32 32 33 34 34 34 35 36 37 38 38
39 38 37 36 35 35 34 34 34 35 35 34 32 32 30 29 30 31 32 33 33 34 34 34 34 34 35 35 35 35 35 35 35 34 34 34 35 35 35 36 36 37 38 39
40 40 38 37 36 36 36 36 35 37 37 36 35 33 31 31 31 32 32 33 33 33 34 36 35 34 35 35 36 36 36 37 37 37 36 36 36 36 36 37 38 38 39 41
42 42 40 39 38 38 37 36 37 37 38 37 36 33 32 32 32 32 32 33 34 35 35 35 36 35 34 35 36 36 37 38 38 38 37 37 37 37 37 37 39 40 41 41
42 43 42 41 40 39 39 38 38 39 40 39 37 34 32 31 31 31 32 33 35 36 36 36 36 37 37 37 37 37 37 38 38 38 38 38 38 38 39 38 39 41 41 42
42 43 44 43 42 41 41 40 39 39 40 39 38 35 32 31 31 32 33 34 35 37 38 39 39 38 39 40 40 39 39 39 39 39 40 39 39 39 39 39 39 40 41 42
42 43 44 44 44 42 42 41 41 41 41 40 39 36 34 32 32 33 34 35 36 38 39 40 40 40 40 41 42 42 41 41 41 41 41 41 41 41 40 41 41 42 44 45
43 44 45 44 43 43 43 42 42 42 43 42 39 36 34 34 34 34 35 36 37 39 39 40 41 40 41 41 42 42 42 43 42 43 42 41 41 41 42 42 42 43 45 46
46 46 46 45 45 45 44 44 44 44 44 44 40 37 35 36 36 36 36 36 37 38 39 40 41 41 41 42 42 42 42 44 44 44 43 43 42 42 43 43 43 44 45 46
48 48 47 47 46 46 46 45 45 45 44 43 42 39 36 37 37 36 36 37 37 39 39 40 41 41 41 41 41 42 42 43 44 44 44 44 44 44 44 44 45 45 46 47
48 48 48 48 47 48 48 44 44 44 42 42 41 39 37 37 36 36 37 37 38 39 39 40 40 40 40 41 41 42 43 43 44 45 46 46 46 46 46 46 46 46 47 48
47 47 47 46 46 49 46 43 42 41 41 41 41 39 38 37 36 36 36 37 38 39 40 41 41 41 41 42 43 43 44 45 46 47 47 47 48 48 49 49 49 49 49 50
44 44 45 45 45 46 44 42 41 41 40 40 40 38 38 37 37 36 36 37 38 39 40 41 42 43 42 43 43 43 45 46 47 47 48 48 48 49 50 51 51 51 51 51
39 40 41 42 43 44 42 40 39 40 40 38 37 37 38 37 37 35 35 37 38 38 39 40 41 42 42 42 43 43 44 45 46 47 48 49 49 50 50 51 51 51 52 52
35 36 37 38 40 41 40 39 38 39 37 36 35 36 37 37 37 36 36 37 37 38 39 39 40 40 41 41 43 43 44 45 46 48 49 49 50 50 50 50 50 50 51 51
31 32 33 34 35 36 37 37 37 36 35 35 35 35 36 36 36 37 37 37 37 37 38 39 40 41 41 41 43 44 44 44 46 47 48 48 49 48 48 48 49 49 49 49
29 31 31 32 33 33 33 34 34 34 34 34 34 34 35 35 35 36 37 37 38 38 38 39 40 40 40 40 40 41 41 43 44 45 46 46 47 47 47 47 48 48 48 48
26 27 28 30 31 32 32 32 33 32 32 32 32 32 32 33 33 34 35 36 37 38 39 40 40 40 40 40 41 40 41 41 42 43 44 44 45 46 46 46 46 47 47 47
23 24 25 26 27 29 31 32 32 32 32 32 32 32 32 33 33 34 34 34 35 36 37 38 40 40 40 40 40 40 41 41 42 42 43 44 44 45 45 45 45 46 46 46
21 22 23 23 24 25 26 28 30 32 33 33 33 32 33 33 34 34 34 34 34 34 35 36 37 39 39 40 40 40 40 40 41 42 42 43 43 44 44 44 44 45 45 45
Wind_Direction
270 271 272 272 272 273 274 275 276 276 274 273 271 267 263 260 256 252 248 245 242 239 237 236 233 232 232 232 233 232 233 232 230 230 230 231 232 234 233 233 237 238 239 241
269 270 271 271 271 272 273 274 276 275 274 274 271 267 263 259 255 251 247 243 241 238 237 236 235 232 233 234 234 234 235 231 230 231 233 232 233 234 235 236 239 239 240 242
268 269 269 270 271 271 272 274 275 275 274 273 271 268 263 258 255 250 246 243 240 238 237 237 235 234 233 232 234 234 236 235 235 235 234 233 233 234 236 237 240 240 241 242
265 266 267 268 269 270 271 272 273 274 273 272 271 269 265 259 255 251 246 244 241 238 237 236 236 235 235 234 235 236 238 238 237 237 236 235 236 237 239 241 243 242 243 243
264 265 266 267 268 269 270 270 271 271 270 270 269 269 266 260 256 252 248 244 243 240 238 237 238 236 234 236 236 238 238 238 239 240 239 237 237 240 241 242 243 243 244 244
263 263 264 266 267 267 268 268 269 269 269 268 269 270 267 261 255 253 250 245 242 241 240 238 238 236 235 237 236 237 238 239 241 243 242 241 239 241 243 245 243 244 245 246
261 262 263 264 264 264 264 265 267 269 269 269 269 268 268 263 258 255 251 246 242 241 240 240 238 238 237 237 237 237 239 239 241 242 242 243 242 241 244 247 246 246 247 248
261 261 262 261 261 262 262 263 265 268 271 271 269 268 267 264 260 256 252 248 243 242 242 241 240 240 238 238 238 240 240 242 242 242 242 245 244 243 246 247 247 249 251 251
261 261 260 260 259 259 260 261 263 266 268 269 268 268 266 263 261 257 253 248 244 244 243 242 240 241 238 238 239 241 243 244 244 244 245 247 246 245 246 248 249 251 252 253
259 260 258 259 259 258 259 261 262 263 266 268 268 268 267 263 261 258 254 249 246 246 244 242 240 240 240 239 240 243 244 244 245 246 248 248 248 249 249 250 251 252 253 254
257 258 258 257 258 258 258 259 260 262 263 265 267 266 265 264 260 259 255 252 249 247 245 243 242 242 242 242 241 243 245 246 246 247 248 250 251 251 251 252 254 254 254 256
256 257 258 258 257 257 257 257 259 261 262 263 265 264 262 262 261 260 257 254 252 249 247 245 244 244 245 245 244 245 245 245 247 247 248 250 252 253 254 254 256 256 256 257
254 255 256 256 256 255 255 256 257 259 259 260 261 262 260 260 259 258 257 255 253 250 248 247 246 245 245 245 246 246 246 247 248 249 250 251 253 255 255 257 259 259 258 258
252 253 253 254 256 257 257 256 256 257 258 259 260 261 260 257 257 256 255 254 253 251 251 249 248 248 247 247 247 247 248 248 249 250 251 253 254 255 258 260 261 261 260 259
251 253 253 253 253 254 255 255 255 256 258 259 260 260 258 257 256 255 255 253 253 252 251 250 249 249 249 249 249 249 250 249 249 251 252 253 254 257 259 261 263 263 263 262
250 252 253 252 252 254 254 254 254 255 256 258 259 258 257 255 255 254 253 253 252 251 251 250 249 249 250 251 250 251 251 250 250 251 253 254 255 257 259 261 262 263 264 264
249 251 253 254 253 254 254 254 255 256 255 256 257 257 255 254 254 254 253 252 252 251 251 251 250 249 249 249 250 250 251 251 251 253 254 255 256 257 258 260 261 262 264 264
250 250 252 254 253 253 255 254 254 255 255 255 256 254 254 255 255 254 252 250 251 251 251 251 251 251 251 250 251 251 252 252 253 254 255 256 257 258 259 260 261 263 264 265
251 250 251 252 254 255 254 254 254 255 255 254 255 253 253 254 254 253 253 251 252 252 252 252 252 252 252 251 252 253 254 254 255 256 257 257 258 260 261 261 262 264 265 266
249 249 250 251 253 255 254 254 254 255 254 253 254 252 252 253 253 253 253 253 253 253 253 253 252 252 252 252 252 254 255 255 256 257 258 259 260 262 262 263 263 265 266 266
247 247 248 250 252 254 254 254 253 254 254 254 253 252 252 252 252 252 251 252 253 254 254 254 253 253 254 254 254 255 255 256 257 258 259 260 260 262 263 263 264 266 266 267
247 248 249 248 248 251 253 254 253 255 255 255 253 252 252 253 253 252 251 252 252 254 254 255 255 255 256 256 256 257 258 258 258 259 260 261 262 263 264 265 266 267 268 268
246 245 246 245 247 249 250 252 253 254 254 254 254 254 254 254 253 252 252 252 253 253 254 255 256 257 257 258 258 259 260 261 262 262 263 263 263 264 265 266 267 268 268 269
246 246 246 246 246 247 248 249 250 252 252 252 253 253 253 254 254 254 255 255 254 254 255 255 255 256 257 258 258 260 262 263 263 264 264 264 264 264 265 266 268 268 269 270
245 245 245 246 248 249 249 249 250 251 251 251 251 252 253 254 255 256 256 255 255 255 256 256 255 255 256 256 258 259 261 263 264 264 263 264 265 265 266 267 267 268 269 271
245 250 252 252 252 253 252 252 252 252 252 252 252 253 253 254 256 256 256 255 255 256 256 256 255 255 255 257 258 259 261 263 264 265 265 265 265 265 265 266 267 268 269 270
Height
5716 5716 5715 5714 5713 5712 5710 5709 5707 5706 5704 5702 5701 5700 5700 5698 5698 5699 5700 5702 5704 5707 5709 5711 5714 5717 5720 5723 5726 5729 5732 5735 5737 5740 5744 5747 5751 5754 5757 5761 5764 5767 5771 5774
5707 5707 5707 5705 5704 5703 5702 5701 5700 5698 5696 5694 5693 5692 5692 5691 5691 5692 5693 5695 5698 5700 5702 5705 5708 5712 5715 5718 5721 5724 5726 5729 5732 5735 5738 5741 5744 5747 5750 5753 5756 5759 5763 5766
5697 5699 5697 5696 5696 5695 5694 5693 5692 5690 5688 5686 5685 5685 5685 5685 5684 5685 5687 5689 5691 5694 5696 5699 5702 5706 5709 5713 5716 5718 5721 5723 5725 5728 5730 5733 5737 5739 5743 5746 5749 5752 5754 5757
5687 5688 5688 5687 5687 5686 5686 5685 5684 5682 5680 5678 5678 5676 5678 5678 5677 5678 5680 5682 5685 5687 5690 5693 5697 5700 5703 5707 5709 5712 5714 5717 5719 5721 5724 5727 5730 5733 5736 5739 5741 5744 5746 5749
5677 5678 5678 5678 5678 5677 5677 5676 5675 5673 5672 5671 5670 5669 5671 5670 5670 5672 5673 5675 5677 5680 5683 5687 5690 5694 5697 5700 5703 5705 5708 5710 5713 5715 5718 5721 5724 5727 5729 5732 5734 5736 5738 5741
5667 5667 5667 5668 5668 5668 5667 5667 5666 5664 5663 5663 5663 5662 5662 5662 5663 5665 5666 5668 5670 5673 5676 5679 5683 5686 5689 5692 5696 5699 5701 5704 5707 5709 5711 5714 5717 5719 5722 5724 5726 5728 5731 5733
5656 5656 5657 5657 5658 5658 5658 5658 5657 5655 5654 5654 5655 5653 5655 5655 5656 5657 5658 5660 5662 5664 5667 5671 5674 5678 5681 5685 5688 5692 5695 5697 5700 5702 5704 5706 5709 5712 5715 5717 5719 5721 5723 5725
5644 5646 5646 5647 5648 5648 5649 5649 5649 5648 5646 5646 5645 5645 5647 5647 5647 5648 5650 5652 5654 5656 5660 5663 5667 5670 5673 5677 5680 5684 5687 5690 5692 5695 5697 5699 5702 5704 5707 5709 5711 5713 5715 5717
5632 5634 5636 5636 5637 5638 5638 5638 5640 5638 5637 5636 5636 5637 5639 5639 5639 5639 5641 5643 5645 5648 5652 5655 5658 5661 5665 5668 5672 5675 5678 5681 5684 5687 5689 5691 5694 5696 5699 5700 5703 5705 5706 5708
5620 5621 5624 5625 5626 5627 5628 5629 5629 5628 5627 5627 5627 5629 5631 5631 5631 5632 5633 5634 5637 5640 5643 5646 5650 5653 5657 5660 5663 5667 5670 5672 5675 5678 5681 5683 5685 5688 5690 5691 5693 5695 5697 5698
5608 5609 5611 5613 5615 5617 5618 5619 5619 5618 5618 5618 5618 5623 5622 5622 5622 5623 5624 5626 5628 5631 5634 5637 5641 5644 5648 5651 5654 5658 5661 5664 5666 5669 5671 5673 5676 5678 5680 5682 5684 5685 5687 5688
5595 5596 5597 5601 5603 5604 5605 5607 5609 5609 5609 5609 5609 5614 5614 5614 5614 5614 5615 5617 5619 5622 5624 5628 5631 5634 5638 5641 5644 5647 5651 5654 5656 5659 5661 5664 5666 5668 5670 5672 5673 5674 5675 5676
5582 5583 5585 5587 5591 5592 5593 5595 5597 5597 5598 5598 5600 5605 5605 5605 5605 5605 5606 5608 5610 5612 5615 5618 5621 5624 5628 5631 5634 5637 5641 5644 5646 5648 5651 5653 5655 5657 5659 5661 5662 5663 5664 5664
5568 5569 5573 5576 5577 5579 5581 5584 5585 5586 5586 5587 5590 5594 5595 5595 5595 5596 5597 5598 5600 5602 5605 5608 5611 5614 5617 5620 5623 5626 5629 5632 5635 5637 5639 5642 5644 5645 5647 5648 5649 5650 5651 5652
5553 5556 5559 5562 5564 5566 5568 5571 5572 5573 5575 5577 5580 5582 5585 5584 5584 5586 5587 5588 5590 5592 5595 5597 5600 5603 5606 5609 5612 5615 5618 5620 5623 5625 5628 5630 5632 5633 5635 5636 5637 5638 5638 5639
5539 5542 5545 5548 5551 5552 5554 5557 5560 5562 5564 5565 5567 5570 5573 5572 5573 5575 5577 5578 5580 5582 5585 5587 5590 5592 5595 5598 5601 5603 5606 5608 5611 5614 5616 5618 5620 5621 5622 5623 5624 5624 5625 5626
5525 5529 5531 5534 5537 5537 5540 5546 5548 5550 5552 5554 5555 5560 5561 5561 5563 5565 5566 5568 5570 5572 5574 5577 5579 5581 5584 5587 5589 5592 5594 5596 5599 5601 5603 5605 5607 5608 5609 5610 5611 5611 5612 5612
5512 5516 5517 5520 5523 5523 5531 5534 5536 5538 5540 5542 5544 5546 5548 5550 5551 5553 5555 5557 5559 5561 5563 5565 5568 5570 5572 5575 5577 5579 5582 5584 5586 5588 5590 5591 5593 5595 5596 5597 5597 5598 5598 5598
5500 5503 5505 5507 5508 5511 5517 5521 5524 5525 5528 5531 5532 5535 5537 5538 5540 5542 5544 5546 5548 5550 5552 5554 5556 5558 5561 5563 5565 5567 5569 5571 5573 5574 5576 5578 5579 5580 5582 5583 5583 5583 5583 5584
5487 5490 5493 5495 5496 5499 5506 5510 5511 5514 5516 5520 5521 5523 5525 5527 5529 5533 5533 5534 5536 5538 5540 5542 5544 5546 5549 5551 5552 5554 5556 5558 5559 5561 5562 5563 5565 5566 5567 5568 5569 5569 5569 5569
5476 5478 5481 5483 5485 5488 5494 5497 5499 5503 5506 5509 5510 5512 5514 5516 5519 5521 5522 5523 5525 5527 5528 5530 5532 5534 5536 5538 5540 5541 5543 5545 5546 5547 5548 5550 5550 5551 5552 5553 5554 5553 5554 5554
5466 5468 5470 5473 5475 5481 5483 5486 5489 5491 5494 5496 5498 5501 5503 5505 5507 5509 5511 5513 5514 5516 5518 5519 5521 5523 5525 5526 5527 5529 5530 5531 5533 5534 5535 5536 5536 5537 5537 5538 5538 5539 5539 5539
5457 5459 5461 5464 5468 5470 5472 5475 5477 5480 5483 5485 5488 5490 5492 5494 5496 5498 5500 5502 5504 5505 5507 5508 5510 5511 5513 5514 5515 5516 5517 5518 5519 5520 5521 5522 5522 5523 5523 5524 5524 5524 5524 5524
5448 5450 5452 5454 5457 5460 5462 5465 5467 5470 5473 5475 5477 5480 5482 5483 5485 5487 5489 5491 5492 5494 5495 5497 5498 5500 5501 5502 5503 5504 5505 5506 5506 5507 5508 5508 5509 5510 5510 5510 5510 5510 5510 5510
5440 5442 5444 5446 5449 5451 5453 5456 5458 5461 5463 5465 5467 5469 5471 5473 5475 5477 5478 5480 5481 5482 5484 5485 5487 5488 5489 5491 5492 5493 5493 5494 5495 5495 5496 5496 5496 5497 5497 5497 5497 5497 5497 5496
5433 5435 5437 5439 5441 5443 5445 5446 5448 5451 5453 5455 5457 5459 5461 5463 5465 5466 5468 5469 5470 5471 5472 5474 5475 5477 5478 5479 5481 5482 5482 5483 5483 5483 5484 5484 5484 5484 5484 5484 5484 5484 5484 5483